This is the latest recevied weather packets stored in our database for station/object WA0GMH-1. If no packets are shown the sender has not sent any weather packets the latest 10 day(s).
| Time | Temp. | Humidity | Pressure | Rain* | Wind** | Luminosity | Snow |
|---|---|---|---|---|---|---|---|
| 1777929568 | 16.11° C | 75% | 1007.9 hPa | 0 mm | - | - | - |
| 1777929166 | 16.11° C | 77% | 1008 hPa | 0 mm | - | - | - |
| 1777928763 | 16.67° C | 76% | 1007.9 hPa | 0 mm | - | - | - |
| 1777928362 | 17.22° C | 78% | 1007.9 hPa | 0 mm | - | - | - |
| 1777927959 | 17.22° C | 72% | 1007.8 hPa | 0 mm | - | - | - |
| 1777927557 | 17.78° C | 70% | 1007.9 hPa | 0 mm | - | - | - |
| 1777927154 | 18.33° C | 68% | 1007.9 hPa | 0 mm | - | - | - |
| 1777926752 | 18.33° C | 67% | 1007.8 hPa | 0 mm | - | - | - |
| 1777926350 | 18.89° C | 65% | 1007.6 hPa | 0 mm | - | - | - |
| 1777925948 | 19.44° C | 65% | 1007.8 hPa | 0 mm | - | - | - |
| 1777925545 | 19.44° C | 66% | 1007.6 hPa | 0 mm | - | - | - |
| 1777925144 | 20° C | 66% | 1007.5 hPa | 0 mm | - | - | - |
| 1777924741 | 20° C | 66% | 1007.4 hPa | 0 mm | - | - | - |
| 1777924339 | 20° C | 66% | 1007.2 hPa | 0 mm | - | - | - |
| 1777923936 | 20° C | 66% | 1007.1 hPa | 0 mm | - | - | - |
| 1777923535 | 20° C | 66% | 1006.9 hPa | 0 mm | - | - | - |
| 1777923132 | 20° C | 67% | 1006.8 hPa | 0 mm | - | - | - |
| 1777922730 | 20.56° C | 68% | 1006.8 hPa | 0 mm | - | - | - |
| 1777922327 | 20° C | 68% | 1006.8 hPa | 0 mm | - | - | - |
| 1777921926 | 20° C | 68% | 1006.7 hPa | 0 mm | - | - | - |
| 1777921523 | 20° C | 68% | 1006.7 hPa | 0 mm | - | - | - |
| 1777921121 | 20° C | 67% | 1006.8 hPa | 0 mm | - | - | - |
| 1777920718 | 20° C | 69% | 1006.4 hPa | 0 mm | - | - | - |
| 1777920317 | 20° C | 69% | 1006.7 hPa | 0 mm | - | - | - |
| 1777919914 | 20° C | 69% | 1006.5 hPa | 0 mm | - | - | - |
* Rain since midnight (hover to see other rain measurements)
** Current wind speed in m/s (hover to see current wind gust speed)